STARLINK-11197 [DTC] (60186 NORAD) Tracking and Keplerian Element Data

This shows tracking and keplerian element data for the satellite.

Feedback or suggestion? Click here.




ElementValue
Catalog60186
NameSTARLINK-11197 [DTC]
Epoch Orbit1596
Epoch Day286.681317
Epoch Year2024
RAAN169.956
Inclination53.1575
Eccentricity0.0001217
Argument of Perigee100.4587
Mean Anonmoly259.6569
Mean Motion15.69701701
Decay Rate0.00033315
L11 60186U 24124D 24286.68131700 .00033315 00000+0 27883-3 0 9997
L22 60186 53.1575 169.9560 0001217 100.4587 259.6569 15.69701701 15961



Live tracking and technical data element details for STARLINK-11197 [DTC] (NORAD 60186). STARLINK-11197 [DTC] can be tracked NOW for your location showing map with azimuth and elevation plus other details from your city location.







IsCatalogInMostPopularTable: catalog: 60186, numindb: 12
Update: records affected: 1



GetName: 60186 STARLINK-11197 [DTC]

Hit Count: updated at: Thu, 23 Jan 2025 13:19:07 GMT